Fulton, NY

5:08 PM EDT on August 19, 2017 (GMT -0400)
Oswego County

Weather History for KFZY - March, 2013

Change the Weather History Date:

Sunday, March 17, 2013

  Actual Average (KSYR) Record (KSYR)
Temperature  
Mean Temperature 24 °F -  
Max Temperature 30 °F 41 °F 73 °F (1927)
Min Temperature 16 °F 23 °F 4 °F (2014)
Degree Days  
Heating Degree Days 41    
Moisture  
Dew Point 13 °F    
Average Humidity 62    
Maximum Humidity 86    
Minimum Humidity 41    
Precipitation  
Precipitation 0.00 in - - ()
Sea Level Pressure  
Sea Level Pressure 30.14 in    
Wind  
Wind Speed 9 mph (WNW)    
Max Wind Speed 16 mph    
Max Gust Speed 25 mph    
Visibility 8 miles    
Events Snow    
Averages and records for this station are not official NWS values.
T = Trace of Precipitation, MM = Missing Value Source: NWS Daily Summary

Daily Weather History Graph

Daily Weather History Graph

Search for Another Location

Airport or City:

Trip Planner

Search our weather history database for the weather conditions in past years. The results will help you decide how hot, cold, wet, or windy it might be!

Date:

Astronomy

Mar. 17, 2013 Rise Set
Actual Time 7:13 AM EDT 7:14 PM EDT
Civil Twilight 6:45 AM EDT 7:43 PM EDT
Nautical Twilight 6:12 AM EDT 8:16 PM EDT
Astronomical Twilight 5:38 AM EDT 8:50 PM EDT
Moon 10:15 AM EDT (3/17) 12:29 AM EDT (3/17)
Length of Visible Light 12h 57m
Length of Day
12h 00m
Waxing Crescent, 31% of the Moon is Illuminated
Mar 17
Waxing Crescent
Mar 19
First Quarter
Mar 27
Full
Apr 3
Last Quarter
Apr 10
New

Hourly Weather History & Observations

Time (EDT) Temp. Windchill Dew Point Humidity Pressure Visibility Wind Dir Wind Speed Gust Speed Precip Events Conditions
12:54 AM 19.9 °F 12.1 °F 12.0 °F 71% 29.98 in 10.0 mi SW 5.8 mph - N/A   Mostly Cloudy
1:54 AM 21.9 °F 14.5 °F 14.0 °F 72% 29.99 in 10.0 mi WSW 5.8 mph - N/A   Overcast
2:54 AM 24.1 °F 14.4 °F 15.1 °F 69% 30.01 in 7.0 mi WSW 9.2 mph - 0.00 in Snow Light Snow
3:17 AM 23.0 °F 13.9 °F 17.6 °F 80% 29.99 in 2.5 mi WSW 8.1 mph - 0.00 in Snow Light Snow
3:27 AM 23.0 °F 14.7 °F 17.6 °F 80% 29.98 in 1.5 mi WSW 6.9 mph - 0.00 in Snow Light Snow
3:54 AM 23.0 °F 13.9 °F 18.0 °F 81% 30.01 in 3.0 mi West 8.1 mph - 0.00 in Snow Light Snow
4:04 AM 21.2 °F 12.6 °F 17.6 °F 86% 29.99 in 9.0 mi West 6.9 mph - 0.00 in   Overcast
4:47 AM 24.8 °F 12.9 °F 15.8 °F 69% 30.00 in 7.0 mi WNW 13.8 mph 19.6 mph 0.00 in Snow Light Snow
4:54 AM 25.0 °F 14.8 °F 17.1 °F 72% 30.02 in 4.0 mi NW 10.4 mph - 0.00 in Snow Light Snow
5:05 AM 24.8 °F 11.9 °F 17.6 °F 74% 30.00 in 1.8 mi NW 16.1 mph 25.3 mph 0.00 in Snow Light Snow
5:28 AM 24.8 °F 12.4 °F 17.6 °F 74% 30.01 in 3.0 mi NW 15.0 mph - 0.00 in Snow Light Snow
5:43 AM 24.8 °F 12.9 °F 15.8 °F 69% 30.02 in 10.0 mi NW 13.8 mph - 0.00 in   Overcast
5:54 AM 24.1 °F 12.5 °F 14.0 °F 65% 30.06 in 10.0 mi NW 12.7 mph - 0.00 in   Overcast
6:54 AM 23.0 °F 11.7 °F 10.9 °F 60% 30.09 in 10.0 mi NW 11.5 mph 25.3 mph N/A   Overcast
7:54 AM 23.0 °F 11.7 °F 12.0 °F 63% 30.11 in 10.0 mi NNW 11.5 mph - N/A   Overcast
8:54 AM 23.0 °F 10.6 °F 12.0 °F 63% 30.14 in 10.0 mi NW 13.8 mph - N/A   Scattered Clouds
9:54 AM 25.0 °F 14.8 °F 10.9 °F 55% 30.17 in 10.0 mi NNW 10.4 mph 16.1 mph N/A   Scattered Clouds
10:54 AM 27.0 °F 18.0 °F 9.0 °F 47% 30.19 in 10.0 mi North 9.2 mph - N/A   Scattered Clouds
11:54 AM 27.0 °F 16.1 °F 12.0 °F 53% 30.21 in 10.0 mi North 12.7 mph 16.1 mph N/A   Overcast
12:54 PM 27.0 °F 16.7 °F 12.9 °F 56% 30.24 in 10.0 mi NNW 11.5 mph 18.4 mph N/A   Overcast
1:54 PM 28.9 °F 21.1 °F 12.9 °F 51% 30.24 in 10.0 mi NNW 8.1 mph 18.4 mph N/A   Mostly Cloudy
2:54 PM 28.9 °F 18.2 °F 12.0 °F 49% 30.23 in 10.0 mi WNW 13.8 mph 18.4 mph N/A   Scattered Clouds
3:54 PM 30.0 °F 20.5 °F 12.0 °F 47% 30.24 in 10.0 mi NW 11.5 mph 19.6 mph N/A   Partly Cloudy
4:54 PM 28.9 °F 19.2 °F 8.1 °F 41% 30.25 in 10.0 mi WNW 11.5 mph - N/A   Clear
5:54 PM 28.0 °F 18.6 °F 7.0 °F 41% 30.27 in 10.0 mi NNW 10.4 mph - N/A   Clear
6:54 PM 26.1 °F 19.4 °F 6.1 °F 43% 30.30 in 10.0 mi West 5.8 mph - N/A   Clear
7:54 PM 24.1 °F - 7.0 °F 48% 30.31 in 10.0 mi Calm Calm - N/A   Clear
8:54 PM 21.9 °F - 6.1 °F 51% 30.34 in 10.0 mi Calm Calm - N/A   Clear
9:54 PM 19.9 °F - 8.1 °F 60% 30.34 in 10.0 mi Calm Calm - N/A   Clear
10:54 PM 18.0 °F - 9.0 °F 68% 30.35 in 8.0 mi Calm Calm - N/A   Clear
11:54 PM 16.0 °F - 10.0 °F 77% 30.36 in 10.0 mi Calm Calm - N/A   Clear